Regional Weather Roundup
Issued by NWS Little Rock, AR

Home | Current Version | Previous Version | Text Only | Print | Product List | Glossary On
Versions: 1 2 3 4 5 6 7 8 9 10 11 12 13 14 15 16 17 18 19 20 21 22 23 24 25 26 27 28 29 30 31 32 33 34 35 36 37 38 39 40 41 42 43 44 45 46 47 48 49 50
000
ASUS44 KLZK 300405
RWRLZK

WEATHER ROUNDUP FOR ARKANSAS
NATIONAL WEATHER SERVICE LITTLE ROCK AR
1100 PM CDT MON MAY 29 2017

NOTE: "FAIR" INDICATES FEW OR NO CLOUDS BELOW 12,000 FEET WITH NO
SIGNIFICANT WEATHER AND/OR OBSTRUCTIONS TO VISIBILITY.

ARZ001-003-010-029-300500-
NORTHWEST ARKANSAS

CITY           SKY/WX    TMP DP  RH WIND       PRES   REMARKS
FAYETTEVILLE   CLEAR     63  60  90 S6        30.06R
FORT SMITH     CLEAR     72  57  59 CALM      30.02R
HARRISON       PTCLDY    68  56  65 SW3       30.05R
BENTONVILLE    CLEAR     70  57  64 CALM      30.05R
ROGERS         CLEAR     71  58  63 S7        30.06R
SILOAM SPGS    PTCLDY    68  54  60 SW3       30.05R
HIGHFILL       CLEAR     69  59  70 SW5       30.05R
$$

ARZ004-005-016-300500-
NORTH CENTRAL ARKANSAS

CITY           SKY/WX    TMP DP  RH WIND       PRES   REMARKS
BATESVILLE     CLEAR     70  61  73 CALM      30.03R
FLIPPIN        CLEAR     70  55  60 SW3       30.00S
MTN HOME       CLEAR     68  60  75 CALM      30.02R
$$

ARZ040-041-300500-
WEST CENTRAL ARKANSAS

CITY           SKY/WX    TMP DP  RH WIND       PRES   REMARKS
MENA           CLEAR     64  63  94 CALM      30.07R
MOUNT IDA      CLEAR     64  62  93 CALM      30.03R
$$

ARZ009-017-025-026-028-300500-
NORTHEAST ARKANSAS

CITY           SKY/WX    TMP DP  RH WIND       PRES   REMARKS
JONESBORO      CLEAR     71  63  75 SW6       30.01R
NEWPORT        CLEAR     73  64  73 SW7       30.02R
WALNUT RIDGE   PTCLDY    72  63  73 SW8       30.01R
BLYTHEVILLE    CLEAR     70  65  84 SW7       30.01R
$$

ARZ022-023-033-042-044-300500-
CENTRAL ARKANSAS

CITY           SKY/WX    TMP DP  RH WIND       PRES   REMARKS
LITTLE ROCK    PTCLDY    68  63  84 CALM      30.04R
N LITTLE ROCK    N/A     70  61  74 CALM      30.03R
JACKSONVILLE   CLEAR     66  65  96 CALM      30.03R
CONWAY           N/A     72  66  83 S3        30.02R
SEARCY         CLEAR     66  65  96 CALM      30.04R
HOT SPRINGS    CLEAR     67  62  84 CALM      30.05R
RUSSELLVILLE   CLEAR     66  63  90 CALM      30.03R
CLINTON        FAIR      64  63  94 CALM      30.04R
$$

ARZ036-300500-
EAST ARKANSAS

CITY           SKY/WX    TMP DP  RH WIND       PRES   REMARKS
WEST MEMPHIS   CLOUDY    70  67  90 S6        30.02R
$$

ARZ050-053-066-070-073-300500-
SOUTHWEST ARKANSAS

CITY           SKY/WX    TMP DP  RH WIND       PRES   REMARKS
ARKADELPHIA    FAIR      68  66  93 CALM      30.05R
CAMDEN         FOG       68  66  94 CALM      30.05R VSB 1/2
TEXARKANA      CLEAR     70  60  70 SE6       30.05R
EL DORADO      CLEAR     70  69  97 CALM      30.05R
DE QUEEN       CLEAR     65  65 100 CALM      30.03R
$$

ARZ056-057-069-300500-
SOUTHEAST ARKANSAS

CITY           SKY/WX    TMP DP  RH WIND       PRES   REMARKS
PINE BLUFF     HVY RAIN  69  66  90 SE3       30.05R
STUTTGART      CLEAR     72  57  60 S6        30.05R
MONTICELLO     CLOUDY    70  68  93 CALM      30.05R

$$





USA.gov is the U.S. government's official web portal to all federal, state and local government web resources and services.